Location: Newark
(52.3500°N, 175.9667°E)
Time: 22:56:33
(UTC+00:00)

Altair - Pass Details

Date: 30 April 2021
Orbit: 1501 x 1683 km, 47.2° (Epoch: 13 May)

Event Time Altitude Azimuth Distance (km) Brightness Sun altitude
Rises 12:37:13 0° 168° (SSE) 4,922 - -22.5°
Reaches altitude 10° 12:43:49 10° 138° (SE) 3,922 - -22.4°
Exits shadow 12:44:04 10° 136° (SE) 3,904 9.3 -22.4°
Maximum altitude 12:46:21 11° 123° (ESE) 3,818 9.3 -22.3°
Drops below altitude 10° 12:48:51 10° 108° (ESE) 3,903 9.5 -22.3°
Sets 12:55:18 0° 77° (ENE) 4,855 10.4 -22.1°
